User: anonymous   Login
Location: Unspecified
(0.0000°N, 0.0000°E)
Time: 17:08:39
(UTC+00:00)
Language:

OFEQ 7 - Orbit

View from above orbital plane
View from above orbital plane
View from above satellite
View from above satellite

Ground track
Ground track

The orbit data is extracted from the following two-line orbital elements,

1 31601U 07025A   17248.11399638 0.00002300  00000-0  94679-4 0    04
2 31601 141.7203 169.7355 0013177 218.4606 141.5387 15.23158070    04
Epoch (UTC): 05 September 2017 02:44:09
Eccentricity: 0.0013177
inclination: 141.7203°
perigee height: 487 km
apogee height: 505 km
right ascension of ascending node: 169.7355°
argument of perigee: 218.4606°
revolutions per day: 15.23158070
mean anomaly at epoch: 141.5387°
orbit number at epoch: 0

The dashed part of the orbit path shows where the satellite is in the earth's shadow,  

DLR